Home   Weather   Ahmedabad   Past weeks

Flag for India Past Weather in Ahmedabad, Gujarat, India — Yesterday and Last 2 Weeks

Now
81 °F

Clear.


Feels Like: 79 °F
Forecast: 62 / 94 °F
Wind: No wind

Location: Ahmadabad Airport

Current Time: Feb 24, 2017 at 8:29:48 pm

Latest Report: Feb 24, 2017 at 7:30 pm


Visibility: 2 mi

Pressure: 29.98 "Hg

Humidity: 26%

Dew Point: 43 °F

Location of AhmedabadLocation

Past Weather in Ahmedabad — Graph

°F

Ahmedabad Temperature Yesterday

Maximum temperature yesterday: 91 °F (at 3:00 pm)
Minimum temperature yesterday: 61 °F (at 5:00 am)
Average temperature yesterday: 75 °F

High & Low Weather Summary for the Past Weeks

 TemperatureHumidityPressure
High99 °F (Feb 19, 2:00 pm)88% (Feb 22, 3:00 am)30.15 "Hg (Feb 22, 3:00 am)
Low57 °F (Feb 10, 4:30 am)13% (Feb 23, 3:00 pm)29.74 "Hg (Feb 20, 4:00 pm)
Average77 °F42%29.97 "Hg
* Reported Feb 9 6:30 pm — Feb 24 7:00 pm, Ahmedabad, Weather by CustomWeather, © 2017

Note: Actual official high and low records may vary slightly from our data, if they occured in-between our weather recording intervals... More about our weather records

Advertising

Ahmedabad Weather History for the Previous 24 Hours

Scroll right to see more
 ConditionsComfort  
Time TempWeatherWind HumidityBarometerVisibility
7:00 pm
Fri, Feb 24
84 °FClear.No wind22%29.98 "Hg3 mi
6:30 pm86 °FClear.5 mph18%29.98 "Hg4 mi
6:00 pm88 °FClear.6 mph17%29.95 "Hg4 mi
5:30 pm90 °FClear.7 mph16%29.95 "Hg5 mi
4:30 pm91 °FClear.6 mph15%29.95 "Hg5 mi
4:00 pm91 °FClear.3 mph15%29.95 "Hg5 mi
3:30 pm91 °FClear.6 mph16%29.95 "Hg5 mi
3:00 pm91 °FClear.7 mph16%29.95 "Hg5 mi
2:30 pm90 °FClear.3 mph16%29.98 "Hg4 mi
2:00 pm90 °FClear.6 mph16%29.98 "Hg4 mi
1:30 pm90 °FClear.7 mph17%30.01 "Hg4 mi
1:00 pm90 °FClear.8 mph18%30.01 "Hg4 mi
12:30 pm88 °FClear.8 mph19%30.04 "Hg4 mi
12:00 pm88 °FClear.8 mph21%30.07 "Hg4 mi
11:30 am86 °FClear.7 mph24%30.07 "Hg4 mi
11:00 am84 °FClear.7 mph25%30.07 "Hg3 mi
10:30 am82 °FClear.8 mph26%30.07 "Hg3 mi
10:00 am79 °FClear.10 mph30%30.07 "Hg3 mi
9:30 am77 °FClear.10 mph30%30.07 "Hg2 mi
9:00 am73 °FClear.6 mph36%30.07 "Hg2 mi
8:30 am70 °FClear.6 mph40%30.04 "Hg2 mi
8:00 am68 °FClear.6 mph40%30.04 "Hg2 mi
7:30 am64 °FClear.5 mph46%30.01 "Hg2 mi
7:00 am63 °FClear.3 mph49%30.01 "Hg2 mi
6:30 am61 °FClear.2 mph52%30.01 "Hg2 mi
6:00 am59 °FClear.2 mph55%29.98 "Hg2 mi
5:00 am61 °FClear.2 mph52%29.98 "Hg2 mi
4:30 am63 °FClear.2 mph49%29.95 "Hg2 mi
3:30 am64 °FClear.5 mph60%29.95 "Hg2 mi
3:00 am70 °FClear.No wind38%29.95 "Hg2 mi
2:30 am66 °FClear.No wind46%29.98 "Hg2 mi
2:00 am66 °FClear.No wind49%29.98 "Hg2 mi
1:30 am64 °FClear.No wind64%29.98 "Hg2 mi
1:00 am66 °FClear.No wind46%29.98 "Hg2 mi
12:30 am68 °FClear.No wind46%30.01 "Hg2 mi
12:00 am70 °FClear.No wind35%30.01 "Hg2 mi
11:30 pm
Thu, Feb 23
72 °FClear.No wind36%30.01 "Hg2 mi
11:00 pm70 °FClear.No wind38%30.01 "Hg2 mi
10:30 pm73 °FClear.3 mph33%30.01 "Hg2 mi
10:00 pm73 °FClear.No wind41%30.01 "Hg2 mi
9:30 pm77 °FClear.No wind30%29.98 "Hg2 mi
9:00 pm77 °FClear.No wind34%29.98 "Hg2 mi
8:30 pm77 °FClear.No wind30%29.98 "Hg2 mi
8:00 pm79 °FClear.No wind26%29.95 "Hg2 mi
Weather by CustomWeather, © 2017

See weather overviewHow to use our weather pages